Location: Camerons Lookout
(40.9833°S, 175.9333°E)
Time: 09:57:45
(UTC+00:00)

IRS-1C Rocket - Pass Details

Date: 14 January 2026
Orbit: 798 x 805 km, 98.7° (Epoch: 19 February)

Event Time Altitude Azimuth Distance (km) Brightness Sun altitude
Rises 11:03:12 0° 170° (S) 3,353 8.2 -24.9°
Reaches altitude 10° 11:05:34 10° 173° (S) 2,416 7.4 -25.1°
Maximum altitude 11:10:51 64° 253° (WSW) 899 4.4 -25.4°
Enters shadow 11:12:10 48° 309° (NW) 1,057 4.5 -25.5°
